Other Public Products
Issued by NWS Charleston, SC

Current Version | Previous Version | Text Only | Print | Product List | Glossary Off
Versions: 1 2 3 4 5 6 7 8 9 10 11 12 13 14 15 16 17 18 19 20 21 22 23 24 25 26 27 28 29 30 31 32 33 34 35 36 37 38 39 40 41 42 43 44 45 46 47 48 49 50

632
FPUS82 KCHS 220212
OPUCHS

TEST...KCHS/KSAV Gateway Observations...TEST
National Weather Service Charleston SC
1000 PM EDT SAT APR 21 2018

NOTE: "fair" indicates few or no clouds below 12,000 feet with no
significant weather and/or obstructions to visibility.

SCZ050-WAZ558-NCZ071-TXZ119-213-PAZ071-DCZ001-FLZ074-172-MI076-
NYZ176-178-MAZ016-IL014-TNZ027-NJZ106-GAZ044-MD014-220300-

...Gateway Observations for Charleston International...

CITY           SKY/WX    TMP DP  RH WIND       PRES   REMARKS
Chas Airport   FAIR      59  51  75 NE7       30.34R
Seattle        PTSUNNY   54  35  48 N8        30.40S
Charlotte      FAIR      62  36  37 SE8       30.32R
Dallas DFW     CLOUDY    58  58 100 NW20      29.96R
Dallas Love    CLOUDY    63  61  93 NW16      29.96R
Philladelphia  MOCLDY    54  30  40 SW7       30.36R
Wash National  CLOUDY    54  35  48 S3        30.38R
Baltimore      MOCLDY    50  31  48 CALM      30.37R
Miami          FAIR      78  71  79 NE12      30.10R
Detroit        MOCLDY    44  23  43 S6        30.42R
Newark         MOCLDY    57  28  33 NW13      30.33R
Laguardia      FAIR      56  23  27 NW15      30.32R
J F K          MOCLDY    47  42  83 CALM      30.34R
Boston Logan   FAIR      51  24  34 N6        30.28R
Ft. Lauderdale FAIR      78  73  84 E10       30.10R
Chicago O`Hare CLOUDY    47  16  29 E7        30.37R
Chicago Midway CLOUDY    46  19  34 NE9       30.38R
Houston Bush   LGT RAIN  70  68  93 SE17      29.89S
Houston Hobby  CLOUDY    71  69  93 SE9       29.89R
Nashville      MOCLDY    66  32  28 CALM      30.20R
Atlanta        MOCLDY    66  41  40 SE8       30.26R

$$

GAZ044-118-TXZ119-213-NCZ071-DCZ001-MDZ014-506-PAZ021-071-NJZ106-
NYZ176-178-MAZ106-OHZ011-021-055-MIZ076-KYZ091-ILZ014-INZ047-
MNZ060-ONZ431-220300-

...Gateway Observations for Savannah International...

CITY           SKY/WX    TMP DP  RH WIND       PRES   REMARKS
Savannah Arpt  MOCLDY    63  54  72 E9        30.30S
Atlanta        MOCLDY    66  41  40 SE8       30.26R
Charlotte      FAIR      62  36  37 SE8       30.32R
Dallas DFW     CLOUDY    58  58 100 NW20      29.96R
Houston Bush   LGT RAIN  70  68  93 SE17      29.89S
Wash National  CLOUDY    54  35  48 S3        30.38R
Wash Dulles    MOCLDY    47  36  65 E3        30.37R
Baltimore      MOCLDY    50  31  48 CALM      30.37R
Philadelphia   MOCLDY    54  30  40 SW7       30.36R
Newark         MOCLDY    57  28  33 NW13      30.33R
Laguardia      FAIR      56  23  27 NW15      30.32R
J F K          MOCLDY    47  42  83 CALM      30.34R
Boston         FAIR      51  24  34 N6        30.28R
Pittsburg      MOCLDY    52  24  33 NW5       30.35S
Akron          CLOUDY    47  28  47 NE7       30.37S
Cleveland      MOCLDY    40  33  76 N3        30.43R
Cincinnati     CLOUDY    54  21  27 NE9       30.33R
Columbus       FAIR      51  24  35 NE7       30.34S
Detroit        MOCLDY    44  23  43 S6        30.42R
Chicago O`Hare CLOUDY    47  16  29 E7        30.37R
Minneapolis    FAIR      52  29  41 NW5       30.34R
Indianapolis   CLOUDY    55  21  26 E9        30.33R
Toronto Canada PTCLDY    48  21  34 N7        30.40R

$$




USA.gov is the U.S. government's official web portal to all federal, state and local government web resources and services.